User: anonymous   Login
Location: Carbonear
(47.7333°N, 53.2500°W)
Time: 12:18:31
(UTC+00:00)
Language:

M-CUBED/EXP-1 PRIME - Orbit

View from above orbital plane
View from above orbital plane
View from above satellite
View from above satellite

Ground track
Ground track

The orbit data is extracted from the following two-line orbital elements,

1 37855U 11061F   22342.04463526  .00019920  00000-0  79616-3 0  9993
2 37855 101.7139 193.7861 0142810 260.9524  97.5510 15.16259067607979
Epoch (UTC): 08 December 2022 01:04:16
Eccentricity: 0.0142810
inclination: 101.7139°
perigee height: 418 km
apogee height: 615 km
right ascension of ascending node: 193.7861°
argument of perigee: 260.9524°
revolutions per day: 15.16259067
mean anomaly at epoch: 97.5510°
orbit number at epoch: 60797

The dashed part of the orbit path shows where the satellite is in the earth's shadow,  

DLR